Homer, AK

5:32 PM AKDT on May 22, 2018 (GMT -0800)
Homer

Weather History for PAHO - August, 2014

Change the Weather History Date:

Wednesday, August 6, 2014

  Actual Average Record
Temperature  
Mean Temperature 58 °F -  
Max Temperature 64 °F 61 °F 74 °F (1944)
Min Temperature 52 °F 49 °F 37 °F (1943)
Degree Days  
Heating Degree Days 8    
Growing Degree Days 8 (Base 50)    
Moisture  
Dew Point 49 °F    
Average Humidity 73    
Maximum Humidity 81    
Minimum Humidity 60    
Precipitation  
Precipitation 0.00 in - - ()
Sea Level Pressure  
Sea Level Pressure 29.99 in    
Wind  
Wind Speed 4 mph (NNE)    
Max Wind Speed 13 mph    
Max Gust Speed -    
Visibility 10 miles    
Events      
Averages and records for this station are not official NWS values.
T = Trace of Precipitation, MM = Missing Value Source: NWS Daily Summary

Daily Weather History Graph

Daily Weather History Graph

Search for Another Location

Airport or City:

Astronomy

Aug. 06, 2014 Rise Set
Actual Time 6:01 AM AKDT 10:20 PM AKDT
Civil Twilight 5:05 AM AKDT 11:15 PM AKDT
Nautical Twilight 3:31 AM AKDT 12:46 AM AKDT
Astronomical Twilight Sun does not set Sun does not set
Moon 7:01 PM AKDT (8/6) 1:35 AM AKDT (8/6)
Length of Visible Light 18h 09m
Length of Day
16h 19m
Waxing Gibbous, 79% of the Moon is Illuminated
Aug 6
Waxing Gibbous
Aug 10
Full
Aug 17
Last Quarter
Aug 25
New
Sep 2
First Quarter

Hourly Weather History & Observations

Time (AKDT) Temp. Dew Point Humidity Pressure Visibility Wind Dir Wind Speed Gust Speed Precip Events Conditions
12:53 AM 55.9 °F 48.0 °F 75% 29.96 in 10.0 mi NNE 3.5 mph - N/A   Mostly Cloudy
1:53 AM 55.9 °F 48.9 °F 77% 29.97 in 10.0 mi East 4.6 mph - N/A   Overcast
2:53 AM 55.0 °F 48.0 °F 77% 29.98 in 10.0 mi Calm Calm - N/A   Mostly Cloudy
3:53 AM 55.0 °F 48.0 °F 77% 29.99 in 10.0 mi Calm Calm - N/A   Overcast
4:53 AM 52.0 °F 45.0 °F 77% 29.99 in 10.0 mi North 4.6 mph - N/A   Partly Cloudy
5:30 AM 54.0 °F 48.0 °F 80% 29.99 in 10.0 mi NNE 4.6 mph - N/A   Overcast
5:39 AM 54.0 °F 48.0 °F 80% 30.00 in 10.0 mi NE 4.6 mph - N/A   Overcast
5:51 AM 55.4 °F 48.2 °F 77% 30.00 in 10.0 mi NNE 4.6 mph - N/A   Overcast
5:53 AM 55.0 °F 48.9 °F 80% 30.00 in 10.0 mi NE 4.6 mph - N/A   Overcast
6:51 AM 55.4 °F 48.2 °F 77% 30.00 in 10.0 mi East 5.8 mph - N/A   Mostly Cloudy
6:53 AM 55.9 °F 48.9 °F 77% 30.00 in 10.0 mi East 5.8 mph - N/A   Mostly Cloudy
7:20 AM 55.9 °F 48.9 °F 77% 30.00 in 10.0 mi NE 4.6 mph - N/A   Mostly Cloudy
7:53 AM 57.0 °F 50.0 °F 77% 30.00 in 10.0 mi NNE 3.5 mph - N/A   Mostly Cloudy
8:00 AM 57.0 °F 50.0 °F 77% 30.00 in 10.0 mi ENE 3.5 mph - N/A   Scattered Clouds
8:51 AM 57.2 °F 50.0 °F 77% 30.00 in 10.0 mi NE 5.8 mph - N/A   Mostly Cloudy
8:53 AM 57.0 °F 50.0 °F 77% 30.00 in 10.0 mi NE 5.8 mph - N/A   Mostly Cloudy
9:00 AM 57.0 °F 50.0 °F 77% 30.00 in 10.0 mi ENE 5.8 mph - N/A   Scattered Clouds
9:53 AM 57.0 °F 51.1 °F 81% 30.01 in 10.0 mi ENE 3.5 mph - N/A   Mostly Cloudy
10:53 AM 59.0 °F 51.1 °F 75% 30.01 in 10.0 mi SW 5.8 mph - N/A   Mostly Cloudy
11:53 AM 62.1 °F 51.1 °F 67% 30.00 in 10.0 mi SW 6.9 mph - N/A   Mostly Cloudy
12:53 PM 62.1 °F 51.1 °F 67% 30.00 in 10.0 mi WSW 10.4 mph - N/A   Mostly Cloudy
1:53 PM 62.1 °F 50.0 °F 65% 30.00 in 10.0 mi WSW 12.7 mph - N/A   Mostly Cloudy
2:53 PM 63.0 °F 50.0 °F 63% 29.99 in 10.0 mi West 12.7 mph - N/A   Mostly Cloudy
3:53 PM 62.1 °F 51.1 °F 67% 29.99 in 10.0 mi West 10.4 mph - N/A   Mostly Cloudy
4:53 PM 62.1 °F 51.1 °F 67% 29.99 in 10.0 mi WSW 9.2 mph - N/A   Overcast
5:53 PM 62.1 °F 51.1 °F 67% 29.98 in 10.0 mi West 4.6 mph - N/A   Mostly Cloudy
6:53 PM 63.0 °F 50.0 °F 63% 29.97 in 10.0 mi SW 4.6 mph - N/A   Mostly Cloudy
7:53 PM 62.1 °F 50.0 °F 65% 29.97 in 10.0 mi WSW 4.6 mph - N/A   Mostly Cloudy
8:53 PM 61.0 °F 50.0 °F 67% 29.95 in 10.0 mi West 3.5 mph - N/A   Mostly Cloudy
9:53 PM 62.1 °F 48.0 °F 60% 29.94 in 10.0 mi Calm Calm - N/A   Overcast
10:53 PM 59.0 °F 50.0 °F 72% 29.94 in 10.0 mi Calm Calm - N/A   Overcast
11:53 PM 57.0 °F 48.9 °F 74% 29.94 in 10.0 mi NE 3.5 mph - N/A   Partly Cloudy